FW1003 Weather Reports


Display with metric or nautical units.
time (UTC)temp
F
wind
direction
speed
MPH
gust
MPH
rain 1hr
in
rain 24hr
in
rain mn
in
humidity
%
barometer
mb
20260508003101 63 360 3.0 6.0 0.00 0.00 0.00 73 1018.6
20260508001558 64 360 3.0 6.0 0.00 0.00 0.00 73 1018.7
20260508000057 64 360 2.0 4.0 0.00 0.00 0.00 73 1018.9
20260507234556 64 360 1.0 5.0 0.00 0.00 0.00 73 1018.9
20260507233056 64 360 1.0 4.0 0.00 0.00 0.00 72 1019.2
20260507231554 64 311 1.0 5.0 0.00 0.00 0.00 72 1019.1
20260507230059 64 315 1.0 4.0 0.00 0.00 0.00 71 1019.2
20260507224552 64 360 0.0 3.0 0.00 0.00 0.00 70 1019.2
20260507223049 65 318 1.0 4.0 0.00 0.00 0.00 70 1019.5
20260507221546 65 360 2.0 4.0 0.00 0.00 0.00 69 1019.4
20260507220042 66 319 2.0 6.0 0.00 0.00 0.00 69 1019.4
20260507214541 66 360 3.0 9.0 0.00 0.00 0.00 70 1019.3
20260507213041 66 317 2.0 8.0 0.00 0.00 0.00 69 1019.3
20260507211534 66 360 3.0 9.0 0.00 0.00 0.00 69 1019.3
20260507210012 65 360 2.0 8.0 0.00 0.00 0.00 70 1019.1
20260507204512 65 360 2.0 6.0 0.00 0.00 0.00 69 1019.0
20260507203011 65 360 3.0 8.0 0.00 0.00 0.00 70 1018.9
20260507201513 65 360 3.0 6.0 0.00 0.00 0.00 69 1018.8
20260507200008 65 360 3.0 6.0 0.00 0.00 0.00 69 1018.9
20260507194507 65 360 2.0 6.0 0.00 0.00 0.00 69 1018.9
20260507193006 65 321 3.0 6.0 0.00 0.00 0.00 69 1019.0
20260507191506 66 296 3.0 5.0 0.00 0.00 0.00 68 1019.1
20260507190006 66 360 3.0 6.0 0.00 0.00 0.00 68 1019.0
20260507184501 66 360 5.0 11.0 0.00 0.00 0.00 67 1019.1
20260507183105 66 315 3.0 8.0 0.00 0.00 0.00 67 1019.1
20260507181559 67 360 3.0 8.0 0.00 0.00 0.00 67 1019.2
20260507180056 67 319 3.0 6.0 0.00 0.00 0.00 66 1019.0
20260507174555 67 360 2.0 8.0 0.00 0.00 0.00 66 1018.8
20260507173057 67 360 4.0 8.0 0.00 0.00 0.00 66 1018.8
20260507171554 67 360 3.0 8.0 0.00 0.00 0.00 65 1018.7
20260507170055 67 360 3.0 6.0 0.00 0.00 0.00 64 1018.6
20260507164605 68 327 3.0 9.0 0.00 0.00 0.00 63 1018.6
20260507163049 68 338 4.0 10.0 0.00 0.00 0.00 61 1018.6
20260507161549 69 351 7.0 14.0 0.00 0.00 0.00 60 1018.5
20260507160048 69 329 7.0 15.0 0.00 0.00 0.00 59 1018.4
20260507154544 70 309 3.0 12.0 0.00 0.00 0.00 60 1018.4
20260507153045 70 313 6.0 12.0 0.00 0.00 0.00 59 1018.4
20260507151543 70 330 5.0 14.0 0.00 0.00 0.00 59 1018.6
20260507150034 70 350 6.0 14.0 0.00 0.00 0.00 59 1018.7
20260507144532 71 360 7.0 14.0 0.00 0.00 0.00 58 1018.4
20260507143053 71 315 5.0 13.0 0.00 0.00 0.00 58 1018.4
20260507141539 71 360 6.0 17.0 0.00 0.00 0.00 56 1018.4
20260507140022 73 328 7.0 16.0 0.00 0.00 0.00 54 1018.4
20260507134520 73 333 9.0 18.0 0.00 0.00 0.00 52 1018.4
20260507133022 73 317 9.0 19.0 0.00 0.00 0.00 52 1018.5
20260507131518 74 285 4.0 14.0 0.00 0.00 0.00 51 1018.6
20260507130030 74 292 5.0 18.0 0.00 0.00 0.00 51 1018.6
20260507124514 74 321 5.0 18.0 0.00 0.00 0.00 49 1018.8
20260507123014 74 315 9.0 18.0 0.00 0.00 0.00 48 1018.7
20260507121514 74 333 10.0 21.0 0.00 0.00 0.00 50 1018.7
20260507120008 74 287 10.0 18.0 0.00 0.00 0.00 50 1018.9
20260507114507 74 360 10.0 16.0 0.00 0.00 0.00 50 1018.9
20260507113006 75 9 6.0 21.0 0.00 0.00 0.00 49 1019.1
20260507111506 75 360 7.0 15.0 0.00 0.00 0.00 49 1019.1
20260507110003 75 343 5.0 18.0 0.00 0.00 0.00 50 1019.2
20260507104605 75 252 10.0 17.0 0.00 0.00 0.00 52 1019.3
20260507103059 75 309 5.0 18.0 0.00 0.00 0.00 51 1019.2
20260507101601 75 321 7.0 15.0 0.00 0.00 0.00 53 1019.4
20260507100059 75 310 4.0 18.0 0.00 0.00 0.00 52 1019.5
20260507094555 75 347 4.0 14.0 0.00 0.00 0.00 53 1019.6
20260507093052 76 38 4.0 13.0 0.00 0.00 0.00 52 1019.7
20260507091551 75 360 4.0 14.0 0.00 0.00 0.00 53 1019.9
20260507090056 74 351 5.0 14.0 0.00 0.00 0.00 52 1020.0
20260507084551 75 276 3.0 15.0 0.00 0.00 0.00 50 1020.1
20260507083044 76 294 3.0 15.0 0.00 0.00 0.00 50 1020.2
20260507081551 76 275 3.0 11.0 0.00 0.00 0.00 48 1020.2
20260507080020 75 306 6.0 12.0 0.00 0.00 0.00 49 1020.4
20260507074517 74 314 4.0 13.0 0.00 0.00 0.00 52 1020.4
20260507073012 74 324 5.0 12.0 0.00 0.00 0.00 51 1020.2
20260507071513 73 315 7.0 12.0 0.00 0.00 0.00 51 1020.1
20260507070004 74 304 3.0 9.0 0.00 0.00 0.00 52 1020.4
20260507064637 73 315 3.0 12.0 0.00 0.00 0.00 54 1020.4
20260507063109 72 333 4.0 10.0 0.00 0.00 0.00 55 1020.4
20260507061553 71 327 3.0 9.0 0.00 0.00 0.00 55 1020.5
20260507060108 71 360 3.0 8.0 0.00 0.00 0.00 56 1020.7
20260507054548 70 360 3.0 11.0 0.00 0.00 0.00 58 1020.5
20260507053040 69 318 4.0 9.0 0.00 0.00 0.00 60 1020.5
20260507051540 68 360 3.0 9.0 0.00 0.00 0.00 62 1020.6
20260507050034 66 360 2.0 4.0 0.00 0.00 0.00 64 1020.5
20260507044516 65 360 1.0 3.0 0.00 0.00 0.00 67 1020.3
20260507043012 63 316 1.0 3.0 0.00 0.00 0.00 69 1020.5
20260507041520 61 315 0.0 1.0 0.00 0.00 0.00 72 1020.3
20260507040100 59 317 0.0 0.0 0.00 0.00 0.00 74 1020.2
20260507034556 57 317 0.0 0.0 0.00 0.00 0.00 76 1020.1
20260507033052 56 316 0.0 0.0 0.00 0.00 0.00 75 1019.9
20260507031547 55 316 0.0 0.0 0.00 0.00 0.00 75 1019.9
20260507030040 54 316 0.0 0.0 0.00 0.00 0.00 74 1019.6
20260507024539 55 316 0.0 0.0 0.00 0.00 0.00 74 1019.5
20260507023042 55 316 0.0 0.0 0.00 0.00 0.00 73 1019.3
20260507021540 55 315 0.0 2.0 0.00 0.00 0.00 73 1019.4
20260507020019 55 315 0.0 1.0 0.00 0.00 0.00 72 1019.4
20260507014518 56 360 0.0 2.0 0.00 0.01 0.00 72 1019.3
20260507013017 56 360 0.0 3.0 0.00 0.01 0.00 72 1019.3
20260507011516 56 360 1.0 3.0 0.00 0.01 0.00 72 1019.3
20260507010013 56 360 1.0 3.0 0.00 0.01 0.00 72 1019.3
20260507004512 56 317 1.0 2.0 0.00 0.01 0.00 72 1019.3